INTELSAT 20 (IS-20)

Last updated on Tue Sep 22 2026 00:03:12 GMT+0000 (Coordinated Universal Time)

1 38740U 12043A 26264.17058774 -.00000028 00000+0 00000+0 0 9990 2 38740 0.0165 122.3265 0001734 49.9184 317.7203 1.00270739 51713
UTC large
Height (km)
Speed (km/s)
/
Latitude / Longitude
Inclination (degrees)
Orbital Period (minutes)
Azimuth
Elevation
Range (km)
Doppler Factor

Next 0 passes for location: London (51.5072 / 0.1276)

No passes found over London.
INTELSAT 20 (IS-20)